Weather History for Du Bois, PA

Change the Weather History Date:

Friday, April 12, 2013

  Actual Average Record
Temperature  
Mean Temperature 51 °F 45 °F  
Max Temperature 62 °F 56 °F 81 °F (2001)
Min Temperature 40 °F 35 °F 18 °F (1967)
Degree Days  
Heating Degree Days 14 20  
Month to date heating degree days 242 262  
Since 1 July heating degree days 6030 6220  
Cooling Degree Days 0 0  
Month to date cooling degree days 1 0  
Year to date cooling degree days 1 0  
Growing Degree Days 2 (Base 50)    
Moisture  
Dew Point 46 °F    
Average Humidity 77    
Maximum Humidity 93    
Minimum Humidity 60    
Precipitation  
Precipitation 0.46 in 0.11 in 16.52 in (1997)
Month to date precipitation 1.17 1.41  
Sea Level Pressure  
Sea Level Pressure 29.62 in    
Wind  
Wind Speed 15 mph (SSE)    
Max Wind Speed 29 mph    
Max Gust Speed 38 mph    
Visibility 6 miles    
Events Rain    
T = Trace of Precipitation, MM = Missing Value Source: NWS Daily Summary

Daily Weather History Graph

Daily Weather History Graph

Search for Another Location

Airport:

Trip Planner

Search our weather history database for the weather conditions in past years. The results will help you decide how hot, cold, wet, or windy it might be!

Date:

Astronomy

Apr. 12, 2013 Rise Set
Actual Time 6:40 AM EDT 7:52 PM EDT
Civil Twilight 6:12 AM EDT 8:21 PM EDT
Nautical Twilight 5:38 AM EDT 8:55 PM EDT
Astronomical Twilight 5:02 AM EDT 9:31 PM EDT
Moon 7:48 AM EDT (4/12) 10:23 PM EDT (4/12)
Length of Visible Light 14h 08m
Length of Day
13h 12m
Waxing Crescent, 5% of the Moon is Illuminated
Apr 12
Waxing Crescent
Apr 18
First Quarter
Apr 25
Full
May 2
Last Quarter
May 9
New

Hourly Weather History & Observations

Time (EDT) Temp. Windchill Dew Point Humidity Pressure Visibility Wind Dir Wind Speed Gust Speed Precip Events Conditions
12:11 AM 44.6 °F 37.4 °F 42.8 °F 93% 29.71 in 2.5 mi East 16.1 mph 25.3 mph N/A   Overcast
12:56 AM 46.9 °F - 44.1 °F 90% 29.70 in 2.5 mi ESE 13.8 mph - N/A   Overcast
1:48 AM 46.4 °F 39.5 °F 44.6 °F 93% 29.67 in 1.8 mi ESE 17.3 mph 26.5 mph N/A   Overcast
1:56 AM 48.0 °F - 45.0 °F 89% 29.67 in 1.8 mi ESE 19.6 mph 26.5 mph N/A   Overcast
2:56 AM 48.9 °F - 46.0 °F 90% 29.64 in 1.5 mi ESE 19.6 mph 24.2 mph N/A   Overcast
3:44 AM 50.0 °F - 46.4 °F 87% 29.61 in 2.0 mi SE 20.7 mph 29.9 mph N/A   Overcast
3:56 AM 50.0 °F - 46.9 °F 89% 29.61 in 2.5 mi ESE 20.7 mph 28.8 mph N/A   Overcast
4:46 AM 50.0 °F - 48.2 °F 94% 29.61 in 2.5 mi ESE 17.3 mph 24.2 mph 0.00 in Rain Light Rain
4:56 AM 50.0 °F - 48.0 °F 93% 29.61 in 2.5 mi SE 17.3 mph 23.0 mph 0.02 in Rain Light Rain
5:22 AM 50.0 °F - 46.4 °F 87% 29.59 in 3.0 mi ESE 13.8 mph - 0.05 in Rain Light Rain
5:56 AM 50.0 °F - 46.9 °F 89% 29.58 in 3.0 mi ESE 15.0 mph - 0.09 in Rain Light Rain
6:30 AM 50.0 °F - 46.4 °F 87% 29.58 in 2.5 mi SE 12.7 mph - 0.09 in Rain Light Rain
6:33 AM 50.0 °F - 46.4 °F 87% 29.58 in 3.0 mi SE 13.8 mph - 0.09 in Rain Light Rain
6:56 AM 48.9 °F - 46.0 °F 90% 29.59 in 6.0 mi SE 13.8 mph - 0.11 in Rain Light Rain
7:32 AM 48.2 °F - 46.4 °F 93% 29.57 in 2.5 mi SE 13.8 mph - 0.05 in Rain Light Rain
7:37 AM 48.2 °F - 46.4 °F 93% 29.57 in 3.0 mi SE 13.8 mph - 0.06 in Rain Light Rain
7:49 AM 48.2 °F - 44.6 °F 87% 29.57 in 2.5 mi ESE 16.1 mph 24.2 mph 0.10 in Rain Light Rain
7:53 AM 48.2 °F - 44.6 °F 87% 29.56 in 3.0 mi SE 15.0 mph 24.2 mph 0.11 in Rain Light Rain
7:56 AM 48.0 °F - 46.0 °F 93% 29.58 in 3.0 mi ESE 13.8 mph 24.2 mph 0.11 in Rain Light Rain
8:56 AM 48.9 °F - 46.0 °F 90% 29.56 in 5.0 mi SE 11.5 mph - 0.09 in Rain Light Rain
9:56 AM 50.0 °F - 46.9 °F 89% 29.55 in 10.0 mi SE 16.1 mph 23.0 mph 0.02 in   Overcast
10:27 AM 48.2 °F - 46.4 °F 93% 29.54 in 10.0 mi SE 15.0 mph - N/A   Overcast
10:56 AM 50.0 °F - 46.9 °F 89% 29.56 in 5.0 mi SE 11.5 mph - N/A   Overcast
11:02 AM 50.0 °F - 46.4 °F 87% 29.55 in 5.0 mi SE 12.7 mph 19.6 mph N/A   Overcast
11:45 AM 51.8 °F - 48.2 °F 88% 29.56 in 10.0 mi SE 9.2 mph - N/A   Overcast
11:56 AM 53.1 °F - 50.0 °F 89% 29.57 in 10.0 mi SE 9.2 mph - N/A   Overcast
12:19 PM 53.6 °F - 51.8 °F 94% 29.55 in 7.0 mi SE 6.9 mph - 0.01 in Rain Light Rain
12:26 PM 55.4 °F - 51.8 °F 88% 29.56 in 7.0 mi SSE 8.1 mph - 0.01 in Rain Light Rain
12:56 PM 55.9 °F - 53.1 °F 90% 29.57 in 10.0 mi South 8.1 mph - 0.02 in   Overcast
1:07 PM 57.2 °F - 53.6 °F 88% 29.57 in 10.0 mi South 6.9 mph - N/A   Overcast
1:15 PM 57.2 °F - 53.6 °F 88% 29.57 in 10.0 mi WSW 8.1 mph - N/A   Overcast
1:30 PM 62.6 °F - 55.4 °F 77% 29.58 in 10.0 mi WSW 11.5 mph - N/A   Overcast
1:56 PM 59.0 °F - 53.1 °F 81% 29.58 in 10.0 mi West 20.7 mph 28.8 mph N/A   Overcast
2:12 PM 55.4 °F - 51.8 °F 88% 29.60 in 4.0 mi West 19.6 mph 26.5 mph 0.00 in Rain Light Rain
2:26 PM 55.4 °F - 51.8 °F 88% 29.60 in 9.0 mi West 18.4 mph 27.6 mph 0.00 in   Overcast
2:37 PM 55.4 °F - 51.8 °F 88% 29.61 in 9.0 mi WSW 15.0 mph - 0.00 in   Overcast
2:56 PM 57.9 °F - 52.0 °F 81% 29.60 in 10.0 mi WSW 16.1 mph 25.3 mph 0.00 in   Overcast
3:24 PM 57.2 °F - 48.2 °F 72% 29.61 in 10.0 mi West 16.1 mph 23.0 mph N/A   Mostly Cloudy
3:56 PM 57.0 °F - 46.9 °F 69% 29.60 in 10.0 mi West 9.2 mph - N/A   Mostly Cloudy
4:56 PM 57.0 °F - 44.1 °F 62% 29.62 in 10.0 mi West 13.8 mph 17.3 mph N/A   Overcast
5:56 PM 55.9 °F - 43.0 °F 62% 29.64 in 10.0 mi WNW 13.8 mph - N/A   Overcast
6:56 PM 52.0 °F - 39.0 °F 61% 29.68 in 10.0 mi West 20.7 mph 26.5 mph N/A   Overcast
7:56 PM 46.9 °F - 37.0 °F 68% 29.75 in 10.0 mi West 21.9 mph 33.4 mph N/A   Overcast
8:56 PM 42.1 °F 33.3 °F 30.9 °F 65% 29.81 in 10.0 mi West 19.6 mph 33.4 mph N/A   Overcast
9:20 PM 42.8 °F 35.4 °F 30.2 °F 61% 29.79 in 10.0 mi WNW 15.0 mph 23.0 mph N/A   Overcast
9:56 PM 42.1 °F 34.5 °F 30.0 °F 62% 29.81 in 10.0 mi West 15.0 mph 20.7 mph N/A   Overcast
10:56 PM 41.0 °F 33.1 °F 28.9 °F 62% 29.83 in 10.0 mi West 15.0 mph 20.7 mph N/A   Overcast
11:56 PM 39.9 °F 32.5 °F 30.0 °F 68% 29.83 in 10.0 mi West 12.7 mph - N/A   Overcast